STARLINK-11178 [DTC] (62465 NORAD) Tracking and Keplerian Element Data

This shows tracking and keplerian element data for the satellite.

Feedback or suggestion? Click here.




ElementValue
Catalog62465
NameSTARLINK-11178 [DTC]
Epoch Orbit655
Epoch Day35.21170299
Epoch Year2025
RAAN106.4284
Inclination43.0012
Eccentricity0.0001724
Argument of Perigee272.9127
Mean Anonmoly87.1546
Mean Motion15.77866743
Decay Rate-8.09E-06
L11 62465U 24254D 25035.21170299 -.00000809 00000+0 -17791-5 0 9994
L22 62465 43.0012 106.4284 0001724 272.9127 87.1546 15.77866743 6555



Live tracking and technical data element details for STARLINK-11178 [DTC] (NORAD 62465). STARLINK-11178 [DTC] can be tracked NOW for your location showing map with azimuth and elevation plus other details from your city location.







IsCatalogInMostPopularTable: catalog: 62465, numindb: 15
Update: records affected: 1



GetName: 62465 STARLINK-11178 [DTC]

Hit Count: updated at: Sun, 18 May 2025 23:09:35 GMT